Location: Laas
(43.4693°N, 0.3073°E)
Time: 19:34:18
(UTC+00:00)

X-37B - Visible Passes

Search period start: 18 January 2021 00:00
Search period end: 28 January 2021 00:00
Orbit: 384 x 390 km, 45.0° (Epoch: 02 January)

Date Brightness Start Highest point End Pass type
(mag) Time Alt. Az. Time Alt. Az. Time Alt. Az.
18 Jan 3.0 17:49:38 10° SSE 17:50:55 12° SE 17:52:12 10° ESE visible
18 Jan 3.5 19:23:55 10° WSW 19:24:37 15° SW 19:24:37 15° SW visible
19 Jan 1.5 18:25:44 10° SW 18:28:40 34° SSE 18:28:57 33° SE visible
20 Jan 2.4 17:27:52 10° SSW 17:30:20 20° SSE 17:32:48 10° E visible
20 Jan 2.1 19:03:28 10° WSW 19:05:31 37° WSW 19:05:31 37° WSW visible
21 Jan 0.9 18:05:05 10° WSW 18:08:12 55° SSE 18:09:46 25° E visible
21 Jan 4.0 19:41:40 10° W 19:42:03 13° W 19:42:03 13° W visible
22 Jan 0.6 18:43:08 10° W 18:46:16 75° NNW 18:46:16 75° NNW visible
23 Jan 0.6 17:44:38 10° WSW 17:47:49 83° SSE 17:50:28 14° ENE visible
23 Jan 3.0 19:21:23 10° W 19:22:44 23° WNW 19:22:44 23° WNW visible
24 Jan 0.7 18:22:50 10° W 18:26:01 64° N 18:26:56 40° ENE visible
25 Jan 1.6 19:01:04 10° WNW 19:03:26 44° WNW 19:03:26 44° WNW visible
26 Jan 0.7 18:02:33 10° W 18:05:43 63° N 18:07:40 21° E visible
26 Jan 3.7 19:39:14 10° WNW 19:39:57 16° W 19:39:57 16° W visible
27 Jan 0.4 18:40:43 10° WNW 18:43:56 88° NNE 18:44:15 70° E visible
